Location: San Martino di Castrozza
(46.2667°N, 11.8000°E)
Time: 03:07:03
(UTC+00:00)

Cosmos 1733 Rocket - Pass Details

Date: 23 April 2021
Orbit: 602 x 629 km, 82.5° (Epoch: 15 May)

Event Time Altitude Azimuth Distance (km) Brightness Sun altitude
Rises 00:20:09 0° 350° (N) 2,894 7.4 -29.2°
Reaches altitude 10° 00:22:23 10° 350° (N) 1,980 6.4 -29.0°
Enters shadow 00:25:12 39° 350° (N) 916 4.2 -28.9°
